Location: Albany
(42.6526°N, 73.7562°W)
Time: 01:39:15
(UTC+00:00)

CSL-04 Rocket - Pass Details

Date: 19 November 2019
Orbit: 806 x 860 km, 99.0° (Epoch: 15 December)

Event Time Altitude Azimuth Distance (km) Brightness Sun altitude
Rises 22:22:55 0° 132° (SE) 3,349 6.5 -10.0°
Reaches altitude 10° 22:25:34 10° 121° (ESE) 2,412 5.7 -10.5°
Maximum altitude 22:29:59 27° 64° (ENE) 1,509 4.5 -11.3°
Drops below altitude 10° 22:34:24 10° 8° (N) 2,403 5.8 -12.0°
Sets 22:37:01 0° 357° (N) 3,335 6.7 -12.5°
